Location: Colorado Springs
(38.8340°N, 104.8210°W)
Time: 00:39:47
(UTC-06:00)

Tiangong 2 - Pass Details

Date: 12 October 2017
Orbit: 388 x 391 km, 42.8° (Epoch: 20 October)

Event Time Altitude Azimuth Distance (km) Brightness Sun altitude
Exits shadow 04:48:33 19° 70° (ENE) 1,007 3.9 -27.4°
Drops below altitude 10° 04:49:35 10° 70° (ENE) 1,421 4.9 -27.2°
Sets 04:51:40 0° 70° (ENE) 2,279 6.3 -26.8°
